Location: Isles
(48.9125°N, 2.8272°E)
Time: 15:37:50
(UTC+00:00)

CZ-4 R/B - Pass Details

Date: 03 February 2023
Orbit: 526 x 586 km, 97.7° (Epoch: 29 March)

Event Time Altitude Azimuth Distance (km) Brightness Sun altitude
Rises 18:01:41 0° 139° (SE) 2,800 4.6 -12.2°
Reaches altitude 10° 18:04:01 10° 129° (SE) 1,898 3.7 -12.6°
Maximum altitude 18:07:38 31° 67° (ENE) 1,026 2.1 -13.1°
Drops below altitude 10° 18:11:15 10° 5° (N) 1,882 3.9 -13.7°
Sets 18:13:32 0° 355° (N) 2,773 4.9 -14.1°
